Flag for Canada Weather past 2 weeks in Edmundston, New Brunswick, Canada

Now
53 °F

Cool.


Feels Like: 53 °F
Forecast: 54 / 74 °F
Wind: No wind

Location: St Leonard

Current Time: Aug 23, 2014 at 5:09:25 AM

Latest Report: Aug 23, 2014 at 4:00 AM


Visibility: N/A

Pressure: 30.16 "Hg

Humidity: 96%

Dew point: 52 °F

Location of EdmundstonLocation

Historic Weather in Edmundston — Graph

°F

Edmundston temperature yesterday

Maximum temperature yesterday: 71 °F (at 5:00 PM)
Minimum temperature yesterday: 54 °F (at 3:00 AM)
Average temperature yesterday: 63 °F

Past Weeks' High & Low Weather Summary

 TemperatureHumidityPressure
High80 °F (Aug 12, 4:00 PM)100% (Aug 12, 4:00 AM)30.22 "Hg (Aug 12, 4:00 AM)
Low50 °F (Aug 18, 4:00 AM)38% (Aug 10, 4:00 PM)29.70 "Hg (Aug 18, 5:00 AM)
Average63 °F80%29.97 "Hg
* Reported Aug 8 3:00 AM — Aug 23 3:00 AM, Edmundston, Weather by CustomWeather, © 2014

Note: Actual official high and low records may vary slightly from our data, if they occured in-between our weather recording intervals... More about our weather records

Advertising

Edmundston weather history for previous 24 hours

 ConditionsComfort  
Time TempWeatherWind HumidityBarometerVisibility
3:00 AM
Aug 23
53 °FCool.No wind96%30.16 "HgN/A
2:00 AM55 °FCool.No wind94%30.16 "HgN/A
1:00 AM57 °FCool.No wind93%30.16 "HgN/A
12:00 AM57 °FCool.No wind93%30.17 "HgN/A
11:00 PM
Aug 22
56 °FCool.No wind94%30.18 "HgN/A
10:00 PM59 °FCool.1 mph90%30.18 "HgN/A
9:00 PM62 °FCool.1 mph89%30.17 "HgN/A
8:00 PM67 °FMild.No wind75%30.17 "HgN/A
7:00 PM69 °FMild.No wind70%30.16 "HgN/A
6:00 PM70 °FMild.1 mph62%30.16 "HgN/A
5:00 PM71 °FMild.No wind61%30.16 "HgN/A
4:00 PM71 °FMild.No wind57%30.17 "HgN/A
3:00 PM68 °FMild.No wind68%30.18 "HgN/A
2:00 PM71 °FMild.1 mph57%30.19 "HgN/A
1:00 PM69 °FMild.No wind63%30.19 "HgN/A
12:00 PM68 °FMild.1 mph65%30.21 "HgN/A
11:00 AM68 °FMild.No wind72%30.22 "HgN/A
10:00 AM64 °FMild.No wind77%30.22 "HgN/A
9:00 AM60 °FCool.No wind86%30.22 "HgN/A
8:00 AM56 °FCool.No wind98%30.21 "HgN/A
7:00 AM57 °FCool.No wind92%30.20 "HgN/A
6:00 AM58 °FCool.No wind91%30.19 "HgN/A
5:00 AM57 °FCool.No wind94%30.18 "HgN/A
Weather by CustomWeather, © 2014

See weather overviewHow to use our weather pages